Wind_Speed
30 30 30 30 31 31 29 27 27 27 26 26 25 25 24 23 22 21 19 18 17 17 16 15 15 14 14 14 13 13 13 13 12 12 11 11 11 11 10 10 10 10 10 10 10 10 10 10 11
32 31 31 31 32 31 29 28 28 28 28 27 26 26 26 25 24 22 21 20 19 19 18 17 16 16 15 15 14 14 14 14 14 13 13 13 13 13 13 13 12 12 12 12 13 13 13 13 13
33 33 33 33 33 31 29 29 29 28 29 28 28 27 26 26 25 24 22 21 21 20 20 19 18 17 16 16 16 15 15 15 15 15 15 15 15 15 15 15 14 14 14 14 14 14 15 15 14
33 34 35 35 33 31 31 30 30 29 30 29 29 29 27 27 26 25 24 23 22 22 21 20 20 19 18 18 17 17 17 17 17 17 16 16 16 16 16 16 16 16 16 16 16 16 17 17 16
35 35 35 35 33 32 32 32 31 30 31 30 29 29 29 28 27 26 25 25 24 23 22 22 21 20 20 19 19 19 19 19 18 18 18 18 18 18 18 18 17 17 18 18 18 19 19 18 18
35 36 36 34 32 32 33 33 33 32 31 31 31 30 30 29 28 27 27 26 25 25 24 23 23 22 21 21 20 20 20 20 20 20 20 20 19 19 19 19 19 19 19 19 20 20 20 20 20
36 36 35 34 33 34 33 33 34 33 32 32 32 31 31 30 28 28 27 27 26 26 25 25 24 23 23 22 22 21 21 21 21 21 21 21 21 21 21 21 21 21 21 21 21 21 21 21 21
37 37 37 35 33 33 33 34 34 34 33 32 31 31 30 30 29 29 28 27 27 27 26 26 25 24 24 23 23 23 22 22 22 22 21 21 22 22 22 22 23 23 23 23 22 23 23 23 23
38 39 37 35 34 33 34 34 34 33 33 32 31 31 30 30 30 29 29 28 28 27 27 27 26 26 25 25 24 24 24 23 23 23 23 23 23 23 23 24 24 24 24 25 25 25 25 25 25
39 39 36 35 35 34 35 35 35 34 32 31 31 31 31 31 30 30 29 29 28 28 28 28 28 27 27 26 26 25 25 25 25 25 25 25 25 25 25 25 26 26 26 26 27 27 27 27 27
38 37 36 36 36 36 36 36 35 35 33 32 31 31 31 31 31 31 30 30 29 29 28 28 28 28 28 28 27 27 26 26 26 26 26 26 26 26 27 27 27 27 28 28 28 28 28 28 28
38 37 37 36 36 37 37 37 36 36 34 33 32 32 31 31 31 31 32 31 30 29 29 29 28 28 28 28 28 28 27 27 27 28 28 28 28 28 28 28 28 29 29 28 28 28 29 29 29
39 37 37 37 37 37 38 38 37 36 35 34 33 33 32 31 31 32 32 32 31 30 29 29 29 29 29 29 29 29 29 28 29 29 29 29 29 29 29 29 30 29 29 29 29 30 30 30 30
40 39 38 38 38 38 38 37 37 35 35 34 34 34 33 32 32 32 33 33 32 31 31 31 31 31 31 30 30 30 30 30 30 30 30 30 30 30 31 30 30 31 31 31 32 32 32 32 32
42 42 41 40 39 39 39 38 36 36 36 35 34 34 34 33 33 33 33 33 33 33 33 33 32 32 33 32 32 32 31 31 31 31 31 31 31 31 32 32 32 32 32 33 34 34 34 34 34
44 44 43 41 41 40 41 38 37 38 37 36 35 35 35 34 34 33 33 33 33 34 34 34 34 34 34 34 34 34 34 33 32 32 33 33 33 33 33 33 33 34 34 34 35 36 36 36 37
44 44 43 42 42 42 42 39 39 39 39 37 37 36 35 35 34 34 33 34 34 34 34 35 35 35 35 35 35 35 35 35 35 34 34 34 35 34 34 35 35 35 36 36 37 37 38 39 39
44 43 43 42 43 44 44 41 41 41 41 39 38 37 36 35 35 35 35 34 34 35 35 35 35 36 36 36 36 36 36 36 36 36 36 36 36 36 36 36 37 37 38 38 38 39 40 41 41
45 45 44 43 43 44 44 43 43 42 42 41 40 39 37 36 36 36 35 35 35 35 35 35 35 36 36 36 36 37 37 37 37 37 37 37 37 38 38 38 38 39 39 40 40 41 42 42 43
46 46 45 44 44 45 44 44 44 43 43 42 41 40 38 37 37 36 36 35 35 35 36 35 36 36 36 36 36 37 37 37 37 37 37 37 37 38 38 39 39 40 40 41 42 43 43 43 43
46 46 45 44 44 45 45 45 44 43 43 43 42 41 40 39 37 37 37 36 36 36 36 36 36 36 36 36 37 37 37 37 38 37 38 38 38 39 39 40 40 41 41 42 42 43 44 43 43
46 45 45 45 46 45 45 46 44 43 43 43 42 42 41 40 39 38 37 37 36 36 37 36 37 37 37 37 37 37 38 38 38 38 38 39 39 40 40 41 41 41 42 42 42 43 44 43 43
45 45 45 46 47 47 46 47 44 43 43 42 42 42 41 41 40 39 38 38 37 37 37 37 37 37 37 37 38 38 38 38 38 38 39 39 40 40 41 41 41 42 42 42 42 43 43 43 43
44 44 44 45 47 49 46 46 46 43 41 41 42 42 42 42 42 41 40 39 38 38 37 38 37 38 38 38 38 39 39 39 39 39 39 40 40 40 41 42 42 42 43 43 43 42 43 43 43
43 43 43 45 46 48 45 46 45 42 41 40 41 42 42 42 42 41 40 40 39 39 38 38 38 38 38 39 39 39 40 40 40 39 40 40 40 41 42 42 42 42 43 43 43 43 43 43 43
41 41 43 44 46 46 45 45 44 43 41 40 40 41 41 42 42 41 41 41 40 40 40 40 40 39 40 40 40 40 40 40 40 40 41 41 42 42 42 42 42 43 43 43 43 43 44 44 45
39 40 41 42 44 44 44 44 43 42 41 40 39 40 40 41 41 41 41 41 41 41 41 41 41 41 41 41 41 41 41 41 41 41 42 42 43 43 43 43 44 44 44 45 45 45 46 46 47
38 38 39 41 42 42 43 42 41 40 40 40 40 40 40 40 41 41 41 41 41 42 42 42 42 42 42 42 42 43 42 42 43 43 43 43 44 44 44 44 45 45 45 46 47 47 48 48 49
37 38 39 39 40 41 41 41 39 39 39 39 39 39 39 40 40 40 40 41 41 42 42 42 43 43 43 43 43 43 43 44 44 45 45 46 46 46 46 46 46 46 47 47 48 49 49 50 51
38 39 39 39 39 39 40 39 38 38 39 39 39 39 39 39 40 41 41 41 42 42 42 42 43 44 44 44 45 45 45 45 45 46 46 47 47 47 47 47 48 48 48 49 50 51 51 52 53
Wind_Direction
234 234 235 235 235 236 236 236 237 238 239 239 239 238 238 240 241 242 242 242 243 243 243 244 246 247 247 248 249 251 251 250 251 254 257 260 263 265 268 270 271 272 273 274 275 276 278 280 281
235 235 235 235 236 236 235 236 237 238 238 238 238 238 239 240 240 242 242 241 242 242 243 244 245 246 247 248 248 249 251 250 251 254 256 259 262 264 266 269 271 272 273 275 276 276 276 278 278
236 235 236 236 237 237 236 237 238 238 238 238 239 239 240 240 240 240 240 240 241 241 242 243 243 245 247 248 249 250 252 252 253 255 257 259 262 264 266 269 270 271 272 273 275 276 275 276 276
237 236 237 237 237 237 237 237 237 237 238 239 240 240 241 241 241 240 240 240 240 241 242 243 244 245 247 249 251 252 253 253 254 256 258 260 262 264 266 269 270 270 271 272 273 274 275 276 276
237 237 237 237 237 237 237 237 236 235 237 238 239 240 241 241 241 240 239 239 240 241 242 243 245 246 248 250 251 253 254 254 255 257 259 261 262 264 266 268 269 271 272 273 273 274 274 275 275
237 237 238 237 236 236 236 236 235 235 236 238 239 240 241 241 240 240 240 240 240 241 242 243 245 247 248 251 252 254 254 255 256 257 258 260 262 264 265 267 268 270 272 273 274 274 274 274 275
237 237 237 236 235 236 236 237 237 236 236 237 238 240 239 240 240 239 240 240 240 241 242 243 245 247 249 251 252 254 255 256 257 258 258 260 262 264 266 267 268 270 271 272 272 273 273 273 274
236 236 236 235 235 235 235 236 237 237 237 237 238 239 239 238 238 238 239 240 240 241 242 243 245 247 249 251 252 253 255 256 257 258 259 261 263 266 268 269 270 271 271 272 272 272 272 273 274
236 236 235 234 235 234 235 236 236 237 236 237 237 237 238 237 237 237 238 240 241 242 243 244 246 247 249 250 252 253 255 256 257 258 260 261 264 266 268 269 270 270 271 272 273 273 273 273 273
235 236 235 234 234 234 234 235 236 237 238 237 237 237 238 238 237 237 237 238 240 242 243 245 247 248 250 251 253 254 255 256 257 259 261 262 264 266 268 270 271 271 272 272 272 272 272 271 272
235 235 234 233 234 234 235 235 236 237 237 237 237 237 238 238 237 237 237 238 240 242 244 246 248 249 250 252 253 254 255 256 258 260 262 263 265 267 268 270 271 272 273 273 273 272 272 271 271
234 233 233 233 233 234 234 235 236 237 237 237 237 238 238 238 238 238 238 239 240 241 244 246 248 249 250 252 253 254 255 257 259 260 262 264 266 268 269 270 271 272 273 273 273 273 273 272 272
233 232 232 232 233 234 234 235 236 238 238 238 238 239 239 239 239 238 239 240 240 241 242 245 247 248 250 252 253 255 256 258 260 262 263 265 266 267 269 270 271 271 272 272 272 272 273 273 273
233 232 232 232 233 234 235 235 236 236 238 237 238 239 240 240 240 240 240 240 241 242 243 244 246 248 249 251 253 255 257 258 260 262 264 265 266 267 268 270 271 271 272 272 272 272 273 274 274
233 233 232 232 234 235 235 234 235 235 236 236 237 238 240 241 241 241 242 241 242 243 244 245 246 248 249 251 253 255 257 259 260 262 263 265 266 267 268 269 271 271 272 273 273 273 273 274 275
233 233 233 233 234 235 236 235 234 235 236 237 237 238 239 241 242 242 243 243 243 244 245 246 248 249 250 252 254 256 257 259 261 262 264 265 266 267 268 270 271 272 273 274 274 273 274 275 276
233 234 234 234 235 236 237 236 235 236 237 237 237 238 240 241 243 244 244 244 244 244 246 248 249 250 251 252 254 256 258 259 261 263 264 266 267 268 269 270 271 272 273 275 275 273 274 275 276
235 235 235 235 236 237 238 237 235 236 237 237 238 239 240 242 243 244 244 244 245 246 247 248 250 252 253 254 255 257 259 261 262 263 264 266 267 268 270 271 272 273 274 275 276 275 275 275 276
235 235 236 236 236 237 237 237 236 236 237 238 238 239 240 242 243 244 244 245 246 247 248 249 251 252 253 254 256 258 259 260 262 263 265 266 267 269 270 271 273 274 275 276 276 276 276 277 277
235 235 236 237 237 238 238 237 237 237 237 238 238 239 240 241 242 243 244 245 247 248 249 250 251 252 253 255 257 259 260 261 262 264 265 267 268 269 270 273 274 275 276 277 277 278 278 278 278
236 236 237 238 238 239 239 238 238 238 239 239 239 239 240 241 242 243 244 245 247 248 249 250 251 253 254 256 258 259 261 262 263 264 265 266 267 269 270 273 275 276 277 278 279 279 278 278 278
236 237 238 238 239 240 240 240 237 239 239 240 240 240 240 241 241 243 244 245 246 247 248 249 251 253 255 256 258 259 261 262 262 264 264 266 268 270 272 274 276 277 278 278 279 280 278 278 278
236 237 238 239 240 241 240 242 238 238 240 240 240 240 240 241 242 242 243 245 246 247 248 250 251 253 255 257 259 259 260 262 263 264 265 266 268 271 273 274 275 277 278 279 279 279 279 278 278
235 236 238 239 241 242 240 243 242 239 240 240 241 241 241 241 242 243 244 245 246 248 249 251 252 254 256 257 259 260 260 262 263 264 265 267 269 272 274 275 277 278 278 279 279 279 279 279 279
234 235 236 238 239 242 241 243 244 241 240 241 242 241 242 242 243 243 244 246 247 248 250 251 253 254 256 258 259 259 260 262 264 265 266 267 270 272 274 275 276 277 278 278 279 279 279 279 279
234 234 236 239 240 241 242 243 243 242 242 242 242 242 242 243 243 244 244 246 247 248 250 251 253 254 256 258 259 259 261 262 264 265 266 268 269 272 274 275 276 277 277 277 278 279 280 280 280
232 233 235 238 241 242 242 243 244 244 244 243 243 243 242 243 244 245 245 246 247 248 250 252 253 255 256 258 259 260 262 263 265 266 267 268 270 272 273 274 275 276 276 276 277 278 279 280 281
230 232 234 236 240 242 243 244 245 245 246 245 243 243 243 243 244 244 245 246 247 249 250 252 253 255 257 258 259 261 263 264 266 266 267 268 270 272 273 274 275 275 276 277 278 279 280 281 282
229 230 233 236 239 242 244 245 245 246 246 246 246 245 245 244 244 244 245 246 248 249 251 252 253 255 256 258 260 262 264 265 266 267 268 269 270 272 274 275 276 276 277 278 278 280 281 282 283
231 231 233 235 238 241 244 246 245 246 247 247 247 247 247 246 246 246 246 247 249 250 251 253 254 255 256 258 260 262 264 266 267 268 269 270 271 272 273 275 276 277 277 278 279 281 282 283 284
Height
5824 5826 5829 5832 5834 5836 5838 5842 5844 5845 5847 5849 5851 5853 5855 5857 5860 5863 5863 5863 5864 5866 5867 5868 5869 5870 5871 5872 5872 5873 5874 5875 5875 5876 5877 5877 5878 5878 5878 5878 5878 5879 5879 5879 5878 5878 5878 5878 5878
5819 5821 5824 5826 5828 5831 5835 5838 5839 5841 5843 5844 5846 5848 5850 5852 5855 5857 5859 5860 5861 5863 5864 5865 5866 5867 5868 5869 5870 5871 5872 5873 5873 5874 5875 5875 5876 5876 5876 5876 5877 5877 5877 5877 5877 5876 5876 5876 5876
5813 5816 5819 5821 5823 5827 5831 5833 5835 5836 5838 5840 5842 5844 5846 5848 5851 5853 5855 5856 5858 5859 5861 5862 5864 5865 5866 5867 5868 5869 5870 5870 5871 5872 5873 5873 5874 5874 5874 5874 5874 5875 5875 5875 5874 5874 5874 5874 5874
5808 5810 5813 5815 5818 5823 5825 5827 5829 5831 5833 5835 5837 5839 5842 5845 5847 5849 5851 5853 5854 5856 5857 5859 5860 5862 5863 5864 5865 5866 5867 5868 5869 5869 5870 5871 5871 5871 5872 5872 5872 5872 5872 5872 5872 5872 5871 5871 5871
5801 5804 5806 5809 5813 5817 5819 5821 5823 5826 5828 5831 5833 5835 5837 5840 5842 5845 5847 5848 5850 5852 5854 5855 5857 5858 5860 5861 5862 5863 5864 5865 5865 5866 5867 5868 5868 5869 5869 5869 5869 5869 5869 5869 5869 5869 5869 5868 5868
5795 5798 5801 5804 5808 5811 5813 5815 5817 5820 5823 5826 5828 5830 5832 5834 5837 5840 5842 5844 5846 5848 5850 5851 5853 5854 5856 5857 5858 5859 5860 5861 5862 5863 5864 5864 5865 5865 5866 5866 5866 5866 5866 5866 5866 5865 5865 5865 5865
5789 5791 5794 5798 5801 5804 5807 5809 5811 5814 5817 5820 5822 5824 5827 5829 5832 5835 5837 5839 5841 5843 5845 5847 5849 5850 5852 5853 5854 5856 5857 5857 5858 5859 5860 5861 5861 5861 5862 5862 5862 5862 5862 5862 5862 5862 5861 5861 5861
5780 5784 5787 5791 5795 5798 5800 5802 5805 5808 5811 5814 5817 5819 5822 5825 5827 5829 5832 5834 5836 5838 5840 5842 5844 5846 5848 5849 5850 5851 5852 5853 5854 5855 5856 5857 5857 5857 5858 5858 5858 5858 5858 5858 5858 5857 5857 5857 5857
5773 5777 5780 5785 5789 5792 5793 5796 5798 5801 5805 5808 5811 5814 5816 5818 5821 5824 5827 5829 5831 5834 5836 5838 5840 5841 5843 5845 5846 5847 5848 5849 5850 5851 5852 5852 5853 5853 5853 5854 5854 5854 5854 5853 5853 5853 5853 5852 5852
5765 5769 5774 5779 5782 5784 5786 5789 5792 5795 5799 5802 5805 5808 5810 5813 5816 5819 5821 5824 5826 5828 5830 5832 5834 5836 5838 5840 5841 5842 5843 5844 5845 5846 5847 5848 5848 5848 5849 5849 5849 5849 5849 5848 5848 5848 5847 5847 5847
5758 5762 5767 5770 5774 5777 5779 5782 5785 5789 5793 5796 5799 5801 5804 5807 5810 5813 5816 5818 5821 5823 5825 5827 5829 5831 5833 5834 5836 5837 5838 5839 5840 5841 5842 5843 5843 5843 5844 5844 5844 5843 5843 5843 5843 5842 5842 5842 5841
5751 5755 5758 5762 5766 5769 5772 5775 5779 5782 5786 5789 5792 5795 5798 5801 5804 5807 5810 5812 5815 5818 5820 5822 5824 5826 5827 5829 5831 5832 5833 5834 5835 5836 5837 5837 5838 5838 5838 5838 5838 5838 5838 5837 5837 5837 5836 5836 5836
5743 5747 5751 5754 5758 5761 5765 5768 5772 5775 5779 5783 5786 5789 5792 5795 5798 5800 5803 5806 5809 5812 5814 5816 5818 5820 5822 5823 5825 5826 5828 5829 5829 5830 5831 5831 5832 5832 5832 5832 5832 5832 5832 5831 5831 5831 5830 5830 5829
5735 5739 5742 5746 5750 5753 5757 5761 5765 5769 5772 5775 5779 5782 5785 5788 5791 5794 5796 5800 5803 5805 5808 5810 5812 5814 5816 5817 5819 5820 5821 5822 5823 5824 5824 5825 5825 5826 5826 5826 5826 5826 5825 5825 5824 5824 5824 5823 5823
5726 5730 5734 5739 5742 5746 5749 5753 5758 5762 5764 5768 5772 5775 5778 5781 5784 5787 5790 5793 5795 5798 5801 5803 5805 5807 5809 5811 5812 5814 5815 5816 5817 5817 5818 5818 5819 5819 5819 5819 5819 5819 5818 5818 5817 5817 5816 5816 5815
5716 5721 5726 5731 5734 5737 5742 5747 5751 5753 5757 5761 5764 5768 5771 5774 5777 5780 5783 5786 5788 5791 5793 5796 5798 5800 5802 5804 5805 5807 5808 5809 5810 5811 5811 5811 5812 5812 5812 5812 5812 5811 5811 5810 5810 5809 5809 5808 5807
5707 5712 5717 5723 5726 5729 5732 5738 5743 5745 5748 5753 5757 5760 5763 5767 5770 5773 5776 5778 5781 5783 5786 5788 5790 5793 5795 5796 5798 5799 5800 5802 5803 5803 5803 5804 5804 5804 5804 5804 5804 5803 5803 5802 5801 5801 5800 5799 5798
5700 5704 5708 5713 5717 5720 5724 5729 5734 5736 5740 5744 5748 5752 5756 5759 5763 5765 5768 5771 5773 5776 5778 5781 5783 5785 5786 5788 5790 5791 5793 5794 5794 5795 5795 5796 5796 5796 5796 5796 5795 5795 5794 5794 5793 5792 5791 5790 5789
5689 5694 5698 5703 5707 5710 5715 5719 5724 5728 5732 5736 5740 5744 5748 5752 5755 5757 5760 5763 5765 5768 5770 5773 5775 5777 5778 5780 5781 5783 5784 5785 5786 5786 5787 5787 5787 5787 5787 5787 5786 5786 5785 5784 5783 5782 5781 5781 5779
5678 5683 5689 5693 5697 5701 5705 5710 5714 5719 5723 5728 5731 5735 5739 5743 5746 5749 5752 5755 5758 5760 5762 5764 5766 5768 5770 5772 5773 5774 5775 5776 5777 5777 5778 5778 5778 5778 5778 5777 5777 5776 5775 5775 5773 5772 5771 5770 5769
5669 5674 5679 5684 5687 5691 5695 5700 5706 5710 5714 5718 5722 5726 5730 5734 5738 5741 5744 5747 5749 5752 5754 5756 5758 5760 5761 5763 5764 5765 5765 5766 5767 5768 5769 5769 5769 5769 5768 5768 5767 5766 5765 5764 5763 5762 5761 5760 5758
5659 5665 5669 5673 5677 5681 5686 5690 5697 5701 5704 5709 5713 5717 5721 5725 5729 5732 5735 5738 5741 5743 5745 5747 5749 5751 5752 5754 5755 5755 5756 5757 5758 5759 5759 5759 5759 5759 5759 5758 5757 5756 5755 5754 5753 5752 5750 5749 5748
5650 5655 5659 5663 5666 5670 5675 5679 5687 5691 5695 5700 5704 5708 5712 5715 5719 5723 5726 5729 5732 5734 5736 5739 5740 5742 5743 5744 5745 5746 5747 5748 5748 5749 5750 5750 5750 5750 5749 5748 5747 5746 5744 5744 5743 5741 5740 5738 5737
5640 5645 5648 5652 5655 5660 5667 5669 5675 5682 5687 5691 5694 5698 5702 5706 5709 5713 5717 5720 5722 5725 5727 5729 5731 5733 5734 5735 5736 5736 5737 5738 5739 5739 5740 5740 5740 5740 5739 5738 5737 5736 5734 5733 5732 5731 5729 5728 5726
5630 5635 5639 5641 5644 5650 5657 5659 5666 5672 5677 5680 5684 5688 5692 5696 5700 5703 5707 5710 5713 5715 5718 5720 5722 5723 5724 5725 5726 5727 5728 5728 5729 5729 5730 5730 5730 5730 5729 5728 5727 5725 5724 5723 5722 5720 5719 5717 5716
5621 5626 5631 5634 5637 5642 5646 5650 5657 5661 5666 5670 5674 5678 5682 5686 5689 5693 5697 5700 5703 5705 5708 5710 5711 5713 5714 5715 5716 5717 5718 5718 5719 5719 5720 5720 5720 5719 5718 5718 5716 5715 5714 5712 5711 5710 5708 5707 5705
5612 5616 5621 5625 5628 5632 5636 5641 5647 5651 5656 5660 5664 5668 5672 5676 5679 5683 5686 5690 5693 5695 5697 5699 5701 5703 5704 5705 5706 5707 5707 5708 5709 5709 5709 5709 5709 5708 5708 5707 5706 5704 5703 5702 5700 5699 5697 5695 5693
5604 5608 5612 5616 5619 5622 5627 5632 5638 5642 5646 5650 5654 5658 5662 5666 5669 5672 5676 5679 5682 5684 5686 5688 5690 5692 5693 5695 5696 5696 5697 5698 5698 5699 5699 5698 5698 5697 5697 5696 5694 5693 5692 5690 5689 5687 5685 5683 5681
5596 5600 5603 5607 5610 5615 5618 5625 5628 5632 5636 5640 5644 5647 5651 5655 5658 5662 5665 5668 5671 5673 5675 5677 5679 5681 5682 5684 5685 5686 5687 5687 5687 5688 5688 5687 5687 5686 5685 5684 5683 5682 5680 5679 5677 5675 5673 5670 5668
5587 5591 5595 5600 5603 5606 5610 5618 5619 5623 5626 5630 5633 5637 5640 5644 5647 5651 5654 5657 5660 5662 5664 5666 5668 5670 5671 5673 5674 5675 5675 5676 5676 5676 5676 5675 5675 5674 5673 5672 5671 5670 5668 5666 5665 5663 5660 5658 5655